Airfield :
LOGIN :

Register | Disclaimer

   EN    FR    IT 

 










Legend :    VFR   Marginal VFR   IFR   Intensive IFR   Very Intensive IFR
Visi :
Ceiling :
>= 8 km
>= 3000ft
5 to 8 km
1000 to 3000 ft
1500m to 5 km
500 to 1000 ft
800 to 1500m
200 to 500 ft
< 800m
< 200 ft
Symbols :   Thunderstorms  Fog  Heavy snow  Heavy precipitations  Wind > 20 kt
SIGMETs :     Misc.  Thunderstorms  Icing  Turbulence  Mountain Waves  Volcanic Ashes







- Airport Elevation : 194 ft
- IATA code : IEG


EPZG - Zielona Gora Babimost

CURRENT METAR :
  • 171130Z 08003KT 040V130 CAVOK 18/09 Q1020

EXPIRED METARs :
  • 171100Z 07003KT 020V120 CAVOK 18/09 Q1020
  • 171030Z VRB02KT CAVOK 18/10 Q1020
  • 171000Z 09003KT 020V140 CAVOK 16/10 Q1021
  • 170930Z VRB02KT 9000 NSC 15/09 Q1021
  • 170900Z VRB01KT 8000 NSC 13/09 Q1021
  • 170830Z 00000KT 7000 NSC 11/08 Q1021

TAF TAF EPZG
Valid from the 17 at 12:00 until the 17 at 21:00 UTC


171130Z 1712/1721 VRB03KT CAVOK
No reported NOTAMs for that airfield.



MET'MAP, your aeronautical weather chart ! - Copyright ORBIFLY December 2007 - Disclaimer

ORBIFLY MET'MAP TEAM :

Programming & Development : Alexandra Zaïnal
Concept & Development : Baudouin d'Aumeries
Co-Development & Prog : Marc-Olivier Méhu
Technical & hardware support : Manuel Goepfert

Contact : metmap@orbifly.com




SOURCES & CREDITS :

   NOAA